FW0827 Weather Reports


time (UTC)temp
C
wind
direction
speed
KPH
gust
KPH
rain 1hr
cm
rain 24hr
cm
rain mn
cm
humidity
%
barometer
mb
20260504141202 17 273 0.0 8.0 0.00 0.00 0.00 58 1013.6
20260504141200 17 274 0.0 0.0 0.00 0.00 0.00 60 1030.4
20260504140704 17 210 3.2 8.0 0.00 0.00 0.00 56 1013.8
20260504140657 17 261 0.0 4.8 0.00 0.00 0.00 57 1030.3
20260504140204 17 218 3.2 8.0 0.00 0.00 0.00 58 1013.7
20260504140152 17 204 3.2 4.8 0.00 0.00 0.00 58 1030.3
20260504130703 15 217 0.0 8.0 0.00 0.00 0.00 66 1014.2
20260504130621 15 212 0.0 4.8 0.00 0.00 0.00 66 1030.9
20260504130118 15 231 0.0 0.0 0.00 0.00 0.00 67 1030.9
20260504120204 11 352 0.0 0.0 0.00 0.00 0.00 69 1014.5
20260504110703 6 321 0.0 0.0 0.00 0.00 0.00 81 1014.6
20260504110508 6 321 0.0 0.0 0.00 0.00 0.00 81 1031.3
20260504110204 5 321 0.0 0.0 0.00 0.00 0.00 80 1014.5
20260504100425 2 329 0.0 0.0 0.00 0.00 0.00 89 1031.3
20260504100204 2 329 0.0 0.0 0.00 0.00 0.00 89 1014.7
20260504081818 2 328 0.0 0.0 0.00 0.00 0.00 88 1031.2
20260504081704 2 328 0.0 0.0 0.00 0.00 0.00 89 1014.8
20260504081315 2 328 0.0 0.0 0.00 0.00 0.00 89 1031.2
20260504081204 2 328 0.0 0.0 0.00 0.00 0.00 89 1014.6
20260504080811 2 328 0.0 0.0 0.00 0.00 0.00 89 1031.2
20260504080308 2 328 0.0 0.0 0.00 0.00 0.00 89 1031.2
20260504080203 2 328 0.0 0.0 0.00 0.00 0.00 89 1014.5
20260504070235 3 328 0.0 0.0 0.00 0.00 0.00 86 1031.2
20260504070203 3 328 0.0 0.0 0.00 0.00 0.00 86 1014.6
20260504060204 3 327 0.0 0.0 0.00 0.00 0.00 85 1014.4
20260504060156 3 327 0.0 0.0 0.00 0.00 0.00 84 1031.0
20260504050703 4 326 0.0 0.0 0.00 0.00 0.00 83 1014.7
20260504050624 4 326 0.0 0.0 0.00 0.00 0.00 83 1031.4
20260504050203 4 326 0.0 0.0 0.00 0.00 0.00 82 1014.6
20260504050121 4 326 0.0 0.0 0.00 0.00 0.00 82 1031.3
20260504045618 4 326 0.0 0.0 0.00 0.00 0.00 82 1031.2
20260504045203 4 326 0.0 0.0 0.00 0.00 0.00 84 1014.6
20260504045118 4 326 0.0 0.0 0.00 0.00 0.00 84 1031.2
20260504044703 4 326 0.0 0.0 0.00 0.00 0.00 84 1014.5
20260504044616 4 326 0.0 0.0 0.00 0.00 0.00 84 1031.1
20260504044203 4 326 0.0 0.0 0.00 0.00 0.00 82 1014.4
20260504044112 4 326 0.0 0.0 0.00 0.00 0.00 82 1031.1
20260504043703 5 326 0.0 0.0 0.00 0.00 0.00 81 1014.5
20260504043609 5 326 0.0 0.0 0.00 0.00 0.00 81 1031.1
20260504043204 4 326 0.0 0.0 0.00 0.00 0.00 83 1014.4
20260504043107 4 326 0.0 0.0 0.00 0.00 0.00 83 1031.0
20260504042703 4 326 0.0 0.0 0.00 0.00 0.00 84 1014.5
20260504042604 4 326 0.0 0.0 0.00 0.00 0.00 84 1031.2
20260504042203 4 327 0.0 0.0 0.00 0.00 0.00 84 1014.3
20260504042100 4 327 0.0 0.0 0.00 0.00 0.00 84 1031.1
20260504041704 4 327 0.0 0.0 0.00 0.00 0.00 84 1014.2
20260504041556 4 327 0.0 0.0 0.00 0.00 0.00 84 1030.8
20260504041204 4 327 0.0 0.0 0.00 0.00 0.00 84 1014.1
20260504041053 4 327 0.0 0.0 0.00 0.00 0.00 84 1030.7
20260504040550 4 327 0.0 0.0 0.00 0.00 0.00 83 1031.0
20260504040047 4 327 0.0 0.0 0.00 0.00 0.00 83 1030.6
20260504035543 4 327 0.0 0.0 0.00 0.00 0.00 83 1030.8
20260504035040 4 327 0.0 0.0 0.00 0.00 0.00 82 1030.8
20260504034703 4 327 0.0 0.0 0.00 0.00 0.00 82 1014.1
20260504034538 4 327 0.0 0.0 0.00 0.00 0.00 82 1030.8
20260504034203 4 327 0.0 0.0 0.00 0.00 0.00 81 1014.2
20260504034034 4 327 0.0 0.0 0.00 0.00 0.00 81 1030.9
20260504033703 5 326 0.0 0.0 0.00 0.00 0.00 80 1014.1
20260504033532 5 326 0.0 0.0 0.00 0.00 0.00 80 1030.7
20260504033204 5 327 0.0 0.0 0.00 0.00 0.00 81 1014.0
20260504033030 5 327 0.0 0.0 0.00 0.00 0.00 81 1030.7
20260504032703 5 327 0.0 0.0 0.00 0.00 0.00 80 1014.0
20260504032526 5 327 0.0 0.0 0.00 0.00 0.00 80 1030.9
20260504032203 5 327 0.0 0.0 0.00 0.00 0.00 79 1013.9
20260504032023 5 327 0.0 0.0 0.00 0.00 0.00 79 1030.8
20260504031520 5 327 0.0 0.0 0.00 0.00 0.00 76 1030.6
20260504031207 5 326 0.0 0.0 0.00 0.00 0.00 77 1013.9
20260504031016 5 326 0.0 0.0 0.00 0.00 0.00 77 1030.6
20260504030703 5 326 0.0 0.0 0.00 0.00 0.00 76 1014.0
20260504030514 6 326 0.0 0.0 0.00 0.00 0.00 75 1030.5
20260504030010 6 326 0.0 0.0 0.00 0.00 0.00 74 1030.7
20260504025703 6 326 0.0 0.0 0.00 0.00 0.00 75 1013.8
20260504025507 5 326 0.0 0.0 0.00 0.00 0.00 75 1030.5
20260504025204 5 327 0.0 0.0 0.00 0.00 0.00 77 1013.8
20260504025004 5 327 0.0 0.0 0.00 0.00 0.00 78 1030.6
20260504024703 5 327 0.0 0.0 0.00 0.00 0.00 78 1013.9
20260504024500 5 327 0.0 0.0 0.00 0.00 0.00 78 1030.7
20260504024203 5 327 0.0 0.0 0.00 0.00 0.00 78 1014.0
20260504023958 5 327 0.0 0.0 0.00 0.00 0.00 78 1030.5
20260504023704 6 327 0.0 0.0 0.00 0.00 0.00 77 1013.8
20260504023454 6 327 0.0 0.0 0.00 0.00 0.00 76 1030.8
20260504023203 6 327 0.0 0.0 0.00 0.00 0.00 74 1014.0
20260504022950 6 327 0.0 0.0 0.00 0.00 0.00 74 1030.6
20260504022703 6 327 0.0 0.0 0.00 0.00 0.00 74 1014.0
20260504022446 6 326 0.0 0.0 0.00 0.00 0.00 74 1030.7
20260504022203 6 326 0.0 0.0 0.00 0.00 0.00 74 1013.9
20260504021943 6 326 0.0 0.0 0.00 0.00 0.00 74 1030.5
20260504021704 6 326 0.0 0.0 0.00 0.00 0.00 73 1014.0
20260504021440 6 326 0.0 0.0 0.00 0.00 0.00 73 1030.6
20260504021204 6 327 0.0 0.0 0.00 0.00 0.00 72 1013.9
20260504020937 6 326 0.0 0.0 0.00 0.00 0.00 72 1030.7
20260504020704 7 326 0.0 0.0 0.00 0.00 0.00 70 1014.0
20260504020434 7 326 0.0 0.0 0.00 0.00 0.00 70 1030.5
20260504015931 7 326 0.0 0.0 0.00 0.00 0.00 70 1030.7
20260504015703 7 326 0.0 0.0 0.00 0.00 0.00 70 1014.0
20260504015426 7 326 0.0 0.0 0.00 0.00 0.00 69 1030.7
20260504015204 7 326 0.0 0.0 0.00 0.00 0.00 71 1013.9
20260504014923 7 326 0.0 0.0 0.00 0.00 0.00 71 1030.5
20260504014704 7 326 0.0 0.0 0.00 0.00 0.00 70 1013.7
20260504014419 7 326 0.0 0.0 0.00 0.00 0.00 67 1030.6
20260504013916 7 326 0.0 0.0 0.00 0.00 0.00 64 1030.6
20260504013704 8 326 0.0 0.0 0.00 0.00 0.00 63 1013.6
20260504013415 8 326 0.0 0.0 0.00 0.00 0.00 64 1030.3
20260504013204 8 327 0.0 0.0 0.00 0.00 0.00 64 1013.8
20260504012910 8 326 0.0 0.0 0.00 0.00 0.00 63 1030.4
20260504012704 8 326 0.0 0.0 0.00 0.00 0.00 62 1013.8
20260504012408 8 326 0.0 0.0 0.00 0.00 0.00 60 1030.2
20260504012204 8 327 0.0 0.0 0.00 0.00 0.00 61 1013.7
20260504011905 8 327 0.0 0.0 0.00 0.00 0.00 61 1030.5
20260504011704 8 327 0.0 0.0 0.00 0.00 0.00 62 1013.7
20260504011402 8 327 0.0 0.0 0.00 0.00 0.00 61 1030.0
20260504010858 8 327 0.0 0.0 0.00 0.00 0.00 59 1030.4
20260504010704 8 327 0.0 0.0 0.00 0.00 0.00 60 1013.5
20260504010354 8 326 0.0 0.0 0.00 0.00 0.00 59 1030.3
20260504010204 8 326 0.0 0.0 0.00 0.00 0.00 58 1013.5
20260504005850 8 326 0.0 0.0 0.00 0.00 0.00 57 1030.2
20260504005704 9 326 0.0 0.0 0.00 0.00 0.00 56 1013.4
20260504005347 9 326 0.0 0.0 0.00 0.00 0.00 55 1029.9
20260504005204 9 327 0.0 0.0 0.00 0.00 0.00 54 1013.5
20260504004845 9 327 0.0 0.0 0.00 0.00 0.00 55 1030.0
20260504004704 10 326 0.0 0.0 0.00 0.00 0.00 55 1013.2
20260504004343 10 326 0.0 0.0 0.00 0.00 0.00 53 1030.2
20260504004204 10 326 0.0 0.0 0.00 0.00 0.00 54 1013.1
20260504003839 10 326 0.0 0.0 0.00 0.00 0.00 53 1030.1
20260504003704 10 327 0.0 0.0 0.00 0.00 0.00 52 1013.3
20260504003336 10 326 0.0 0.0 0.00 0.00 0.00 53 1029.8
20260504002832 10 326 0.0 0.0 0.00 0.00 0.00 53 1029.8
20260504002329 10 326 0.0 0.0 0.00 0.00 0.00 54 1029.7
20260504002204 11 326 0.0 0.0 0.00 0.00 0.00 52 1013.0
20260504001827 11 326 0.0 0.0 0.00 0.00 0.00 52 1029.5
20260504001703 11 326 0.0 0.0 0.00 0.00 0.00 51 1012.9
20260504001324 11 326 0.0 0.0 0.00 0.00 0.00 51 1029.6
20260504000821 11 327 0.0 0.0 0.00 0.00 0.00 52 1029.6
20260504000318 11 257 0.0 0.0 0.00 0.00 0.00 51 1029.4
20260504000204 11 258 0.0 0.0 0.00 0.00 0.00 51 1012.9
20260503235815 11 123 0.0 0.0 0.00 0.00 0.00 52 1029.2
20260503235703 11 119 0.0 0.0 0.00 0.00 0.00 51 1012.7
20260503235313 11 268 0.0 0.0 0.00 0.00 0.00 50 1029.2
20260503235204 11 289 0.0 0.0 0.00 0.00 0.00 50 1012.6
20260503234810 12 300 0.0 0.0 0.00 0.00 0.00 50 1029.3
20260503234308 12 331 0.0 0.0 0.00 0.00 0.00 48 1029.1
20260503234204 12 284 0.0 0.0 0.00 0.00 0.00 47 1012.6
20260503233806 12 268 0.0 0.0 0.00 0.00 0.00 46 1029.4
20260503233705 12 279 0.0 0.0 0.00 0.00 0.00 48 1012.6
20260503233300 12 279 0.0 0.0 0.00 0.00 0.00 46 1029.2
20260503233203 12 286 0.0 0.0 0.00 0.00 0.00 47 1012.5
20260503232758 13 277 0.0 0.0 0.00 0.00 0.00 46 1029.2
20260503232704 13 264 0.0 0.0 0.00 0.00 0.00 46 1012.5
20260503232255 13 252 0.0 0.0 0.00 0.00 0.00 44 1029.2
20260503232204 13 244 0.0 0.0 0.00 0.00 0.00 45 1012.5
20260503231753 13 281 0.0 0.0 0.00 0.00 0.00 44 1029.1
20260503231704 13 262 0.0 1.6 0.00 0.00 0.00 43 1012.7
20260503231250 13 197 0.0 3.2 0.00 0.00 0.00 43 1029.3
20260503231204 13 128 0.0 1.6 0.00 0.00 0.00 43 1012.6
20260503230746 13 251 0.0 0.0 0.00 0.00 0.00 45 1029.3
20260503230704 13 248 0.0 1.6 0.00 0.00 0.00 44 1012.6
20260503230244 13 263 0.0 0.0 0.00 0.00 0.00 43 1029.1
20260503225741 13 270 0.0 0.0 0.00 0.00 0.00 45 1029.2
20260503225704 14 275 0.0 4.8 0.00 0.00 0.00 43 1012.4
20260503225241 14 303 0.0 0.0 0.00 0.00 0.00 43 1028.9
20260503225204 14 293 0.0 12.9 0.00 0.00 0.00 42 1012.6
20260503224738 14 287 0.0 0.0 0.00 0.00 0.00 43 1029.1
20260503224703 14 269 0.0 1.6 0.00 0.00 0.00 42 1012.4
20260503224236 14 275 0.0 0.0 0.00 0.00 0.00 42 1029.1
20260503224204 14 273 1.6 12.9 0.00 0.00 0.00 42 1012.3
20260503223733 14 273 0.0 12.9 0.00 0.00 0.00 41 1029.0
20260503223704 14 249 3.2 12.9 0.00 0.00 0.00 42 1012.2
20260503223231 14 336 1.6 8.0 0.00 0.00 0.00 41 1029.0
20260503223204 14 287 0.0 12.9 0.00 0.00 0.00 42 1012.2
20260503222726 14 250 0.0 3.2 0.00 0.00 0.00 41 1029.1
20260503222225 14 270 0.0 3.2 0.00 0.00 0.00 43 1028.9
20260503221723 14 231 4.8 12.9 0.00 0.00 0.00 41 1029.0
20260503221704 14 233 1.6 12.9 0.00 0.00 0.00 42 1012.3
20260503221221 14 232 3.2 11.3 0.00 0.00 0.00 42 1028.9
20260503221204 14 235 4.8 12.9 0.00 0.00 0.00 42 1012.4
20260503220717 14 222 4.8 8.0 0.00 0.00 0.00 39 1029.1
20260503220704 14 239 1.6 11.3 0.00 0.00 0.00 40 1012.3
20260503220214 15 253 0.0 11.3 0.00 0.00 0.00 40 1029.3
20260503215711 14 260 0.0 0.0 0.00 0.00 0.00 40 1029.0
20260503215208 14 228 0.0 3.2 0.00 0.00 0.00 40 1029.1
20260503215204 14 263 0.0 4.8 0.00 0.00 0.00 42 1012.4
20260503214706 14 280 3.2 4.8 0.00 0.00 0.00 40 1029.0
20260503214703 14 278 1.6 8.0 0.00 0.00 0.00 43 1012.4
20260503214203 14 284 0.0 1.6 0.00 0.00 0.00 41 1012.3
20260503214201 14 298 0.0 0.0 0.00 0.00 0.00 40 1029.0
20260503213655 14 290 0.0 0.0 0.00 0.00 0.00 41 1029.0
20260503213203 14 269 0.0 0.0 0.00 0.00 0.00 41 1012.5
20260503213152 14 271 0.0 0.0 0.00 0.00 0.00 39 1029.2
20260503212703 13 280 0.0 12.9 0.00 0.00 0.00 40 1012.5
20260503212649 13 288 0.0 0.0 0.00 0.00 0.00 40 1029.0
20260503212203 14 177 0.0 14.5 0.00 0.00 0.00 40 1012.4
20260503212146 14 287 0.0 8.0 0.00 0.00 0.00 40 1029.2
20260503211703 15 1 1.6 11.3 0.00 0.00 0.00 40 1012.4
20260503211644 15 313 3.2 11.3 0.00 0.00 0.00 40 1029.1
20260503211203 15 139 0.0 12.9 0.00 0.00 0.00 41 1012.3
20260503211139 15 215 0.0 4.8 0.00 0.00 0.00 38 1029.1
20260503210703 15 229 3.2 20.9 0.00 0.00 0.00 38 1012.1
20260503210636 15 223 4.8 12.9 0.00 0.00 0.00 38 1029.0
20260503210203 14 269 3.2 19.3 0.00 0.00 0.00 44 1012.2
20260503210133 15 208 6.4 17.7 0.00 0.00 0.00 41 1028.9
20260503205703 14 242 1.6 12.9 0.00 0.00 0.00 39 1012.3
20260503205628 14 249 0.0 4.8 0.00 0.00 0.00 40 1028.8
20260503205203 14 251 3.2 12.9 0.00 0.00 0.00 40 1012.5
20260503205125 14 249 4.8 12.9 0.00 0.00 0.00 40 1029.2
20260503204702 14 273 0.0 12.9 0.00 0.00 0.00 41 1012.4
20260503204622 14 256 0.0 3.2 0.00 0.00 0.00 40 1029.1
20260503204202 14 225 6.4 12.9 0.00 0.00 0.00 38 1012.3
20260503204119 14 224 8.0 12.9 0.00 0.00 0.00 38 1029.0
20260503203703 14 217 0.0 8.0 0.00 0.00 0.00 39 1012.4
20260503203616 15 209 0.0 8.0 0.00 0.00 0.00 39 1029.0
20260503203114 15 342 0.0 4.8 0.00 0.00 0.00 42 1029.2
20260503202703 14 322 0.0 8.0 0.00 0.00 0.00 42 1012.4
20260503202611 15 341 0.0 3.2 0.00 0.00 0.00 41 1029.1
20260503202203 14 307 1.6 14.5 0.00 0.00 0.00 42 1012.6
20260503202109 14 307 0.0 12.9 0.00 0.00 0.00 42 1029.3
20260503201703 14 326 6.4 22.5 0.00 0.00 0.00 40 1012.6
20260503201607 15 329 11.3 16.1 0.00 0.00 0.00 40 1029.3
20260503201203 15 134 8.0 22.5 0.00 0.00 0.00 40 1012.5
20260503201104 15 134 12.9 22.5 0.00 0.00 0.00 40 1029.2
20260503200703 15 301 0.0 14.5 0.00 0.00 0.00 39 1012.8
20260503200600 15 295 0.0 3.2 0.00 0.00 0.00 38 1029.5
20260503200203 15 267 3.2 19.3 0.00 0.00 0.00 41 1012.7
20260503200056 15 237 1.6 17.7 0.00 0.00 0.00 41 1029.3
20260503195548 15 215 0.0 11.3 0.00 0.00 0.00 40 1029.5
20260503195203 14 314 1.6 19.3 0.00 0.00 0.00 41 1012.9
20260503195044 14 296 3.2 11.3 0.00 0.00 0.00 41 1029.6
20260503194703 14 301 1.6 19.3 0.00 0.00 0.00 39 1012.8
20260503194542 14 251 1.6 4.8 0.00 0.00 0.00 39 1029.4
20260503194203 15 335 3.2 14.5 0.00 0.00 0.00 41 1013.0
20260503194041 15 355 3.2 11.3 0.00 0.00 0.00 41 1029.8
20260503193703 15 259 1.6 14.5 0.00 0.00 0.00 40 1012.8
20260503193539 15 257 0.0 0.0 0.00 0.00 0.00 39 1029.4
20260503193203 14 307 1.6 25.7 0.00 0.00 0.00 41 1013.0
20260503193039 14 325 1.6 12.9 0.00 0.00 0.00 41 1029.7
20260503192703 15 203 3.2 25.7 0.00 0.00 0.00 49 1013.1
20260503192535 15 213 1.6 8.0 0.00 0.00 0.00 41 1029.8
20260503192203 13 306 1.6 22.5 0.00 0.00 0.00 44 1012.9
20260503192031 13 315 0.0 8.0 0.00 0.00 0.00 45 1029.6
20260503191703 14 189 1.6 14.5 0.00 0.00 0.00 40 1013.2
20260503191528 14 180 3.2 8.0 0.00 0.00 0.00 40 1029.9
20260503191203 14 246 3.2 14.5 0.00 0.00 0.00 43 1013.3
20260503191025 13 313 0.0 3.2 0.00 0.00 0.00 44 1029.8
20260503190704 13 323 3.2 22.5 0.00 0.00 0.00 45 1013.2
20260503190522 13 330 11.3 22.5 0.00 0.00 0.00 40 1029.7
20260503190203 14 294 4.8 19.3 0.00 0.00 0.00 43 1013.3
20260503190019 13 256 3.2 11.3 0.00 0.00 0.00 43 1029.8
20260503185703 12 283 4.8 20.9 0.00 0.00 0.00 46 1013.2
20260503185515 12 353 14.5 20.9 0.00 0.00 0.00 45 1029.9
20260503185203 12 303 3.2 19.3 0.00 0.00 0.00 45 1013.4
20260503185010 12 7 1.6 16.1 0.00 0.00 0.00 45 1030.1
20260503184703 12 356 1.6 32.2 0.00 0.00 0.00 42 1013.4
20260503184506 12 270 0.0 30.6 0.00 0.00 0.00 44 1030.1
20260503184204 13 326 9.7 14.5 0.00 0.00 0.00 43 1013.4
20260503184002 13 349 12.9 16.1 0.00 0.00 0.00 43 1030.3
20260503183704 13 208 3.2 20.9 0.00 0.00 0.00 47 1013.4
20260503183459 13 317 1.6 4.8 0.00 0.00 0.00 44 1030.1
20260503183203 13 326 4.8 20.9 0.00 0.00 0.00 43 1013.5
20260503182955 13 314 3.2 20.9 0.00 0.00 0.00 43 1030.0
20260503182704 14 248 0.0 14.5 0.00 0.00 0.00 46 1013.4
20260503182450 13 24 0.0 11.3 0.00 0.00 0.00 50 1030.1
20260503181947 12 316 3.2 4.8 0.00 0.00 0.00 48 1030.2
20260503181703 12 320 1.6 27.4 0.00 0.00 0.00 46 1013.5
20260503181444 12 303 1.6 8.0 0.00 0.00 0.00 47 1030.3
20260503181203 13 0 3.2 27.4 0.00 0.00 0.00 43 1013.6
20260503180939 13 324 1.6 11.3 0.00 0.00 0.00 45 1030.5
20260503180703 12 330 0.0 20.9 0.00 0.00 0.00 46 1013.6
20260503180438 12 314 0.0 12.9 0.00 0.00 0.00 46 1030.5
20260503175934 12 333 4.8 16.1 0.00 0.00 0.00 48 1030.3
20260503175703 12 329 11.3 33.8 0.00 0.00 0.00 42 1013.6
20260503175433 12 333 16.1 29.0 0.00 0.00 0.00 45 1030.3
20260503175203 12 318 4.8 27.4 0.00 0.00 0.00 44 1013.5
20260503174928 12 301 4.8 29.0 0.00 0.00 0.00 43 1030.4
20260503174704 13 342 1.6 32.2 0.00 0.00 0.00 46 1013.5
20260503174426 13 340 9.7 22.5 0.00 0.00 0.00 46 1030.5
20260503174204 13 308 14.5 33.8 0.00 0.00 0.00 42 1013.7
20260503173926 13 326 14.5 22.5 0.00 0.00 0.00 44 1030.4
20260503173703 13 236 4.8 19.3 0.00 0.00 0.00 42 1013.4
20260503173423 13 181 1.6 11.3 0.00 0.00 0.00 45 1030.4
20260503172920 12 316 11.3 25.7 0.00 0.00 0.00 41 1030.6
20260503172705 12 331 8.0 32.2 0.00 0.00 0.00 45 1013.6
20260503172417 12 295 16.1 25.7 0.00 0.00 0.00 44 1030.7
20260503171913 12 349 9.7 12.9 0.00 0.00 0.00 44 1030.7
20260503171703 12 331 9.7 25.7 0.00 0.00 0.00 44 1013.9
20260503171410 12 191 1.6 17.7 0.00 0.00 0.00 41 1030.5
20260503171204 12 13 9.7 33.8 0.00 0.00 0.00 45 1014.0
20260503170908 12 317 11.3 33.8 0.00 0.00 0.00 47 1030.3
20260503170703 12 295 1.6 25.7 0.00 0.00 0.00 44 1014.0
20260503170404 12 345 6.4 22.5 0.00 0.00 0.00 43 1030.4
20260503170204 12 328 8.0 32.2 0.00 0.00 0.00 45 1013.9
20260503160203 12 326 8.0 27.4 0.00 0.00 0.00 49 1014.3
20260503150756 10 271 0.0 12.9 0.00 0.00 0.00 51 1031.3
20260503150703 10 289 1.6 12.9 0.00 0.00 0.00 58 1014.4
20260503150252 9 7 0.0 3.2 0.00 0.00 0.00 57 1031.4
20260503150204 8 277 0.0 20.9 0.00 0.00 0.00 57 1014.7